WESTFORD NEEDLES, 2359

Orbit data source: Space-Track

WESTFORD NEEDLES, 2359 is space debris in LEO originally from a launch on Thu, 09 May 1963 UTC launched from the Air Force Western Test Range (AFWTR). Debris objects in space refer to the collection of defunct objects orbiting the Earth. Examples of debris include non-operational satellites, rocket bodies, and fragments generated from explosions, collisions, or faulty payload assembly.

Loading next visibility...
Identifier
2359, 1963-014J
Orbit
LEO
Country
Flag of USUS
Related business
Manufacturer
Unknown
Mission
Spacecraft
Bus & Motor
Unknown
Mass
Unknown
Launch date (UTC)
1963-05-09 (63 years ago)
Launch vehicle
Unknown
Launch site
Air Force Western Test Range (AFWTR)
Object type
Payload
Rocket body
Debris
Shape & HBR
Unknown shape, 0.2 m
Radar Cross Section
Medium (>0.1 m² and <1 m²)

Expand to show TLE details & history
Last TLE update: 2 days ago

TLE from 2 days ago
0 WESTFORD NEEDLES
1 02359U 63014J   26139.30847077  .00000396  00000-0  74019-1 0  9990
2 02359  86.8840   9.6589 1286741 110.5217 263.8268  8.71931981912226
Epoch: 2026-05-19T07:24Z
TLE epoch observation values (Epoch: 2026-05-19T07:24:11.874Z)
Latitude
0.00002°
Longitude
21.62519°
Altitude
3,891.543 km
Speed
6.137 km/s
True Right ascension
00h 38m 38s
True Declination
0° 00' 00"
Sunlit
Object was in daylight at epoch
Visualization orbit readout
Latitude
Unknown
Longitude
Unknown
Altitude
Unknown
Speed
Unknown
Apparent Right ascension
Unknown
Apparent Declination
Unknown
Sunlit
N/A
Visualization observer readout
Local Sidereal Time
19:49:25
Azimuth
Unknown
Elevation
Unknown
Doppler factor
Unknown
Orbital elements
Apogee altitude
4,873.555 km
Perigee altitude
2,308.065 km
Semi-major axis
9,968.947 km
Eccentricity
0.12867
Inclination
86.884°
RAAN
9.6589°
Arg. of periapsis
110.5217°
True anomaly
249.56503°
Mean anomaly
263.8268°
Eccentric anomaly
256.65344°
Mean motion
2.18057 °/min
Orbital period
165.09 mins
BSTAR
0.074019
Loading maneuver chart data...
Computing Atmospheric mass density...

Documentation

Showing up to 5 results
|